Preview of NWS' New Version of Forecast
This preview is not operational and should not be used for support decisions.

Regional Weather Roundup (RWR)

Issued by National Weather Service (NWS)

                            
000
ASUS42 KTBW 181615
RWRFL 
FLORIDA REGIONAL WEATHER ROUNDUP
NATIONAL WEATHER SERVICE TAMPA BAY RUSKIN FL
1200 PM EDT TUE JUN 18 2019

NOTE: "FAIR" INDICATES FEW OR NO CLOUDS BELOW 12,000 FEET WITH NO
SIGNIFICANT WEATHER AND/OR OBSTRUCTIONS TO VISIBILITY.

FLZ001>010-012>015-112-114-115-181700-
PANHANDLE FLORIDA
  
CITY           SKY/WX    TMP DP  RH WIND       PRES   REMARKS
PENSACOLA      PTSUNNY   86  80  82 S10       29.97R HX 101           
PENSACOLA NAS  PTSUNNY   86  78  77 S14       29.97R HX  98           
MILTON NAS     FAIR      85  74  69 SW10      29.97S                  
CRESTVIEW      TSTM      78  72  81 NW5       30.02R VSB 3/4          
DUKE FIELD     TSTM      77  75  94 CALM      29.98S FOG              
VALPARAISO     PTSUNNY   81  70  69 S7        29.97R                  
MARY ESTHER    MOSUNNY   85  75  73 SE7       29.96S                  
TRI COUNTY     FAIR      85  74  69 S6        30.00R                  
PANAMA CITY    PTSUNNY   88  75  65 S14       29.98S HX  97           
TYNDALL AFB    FAIR      87  76  70 SW12      30.01F HX  97           
APALACHICOLA   FAIR      87  74  64 S12       30.01R HX  95           

STATION/POSITION SKY/WX   TEMP    WIND        PRES    WAVE   SWELL
                          AIR SEA DIR/SP/G            HT/PER HT/PER
                          (F)     (DEG/KT/KT) (MB)    (FT/S) (FT/S)
30.1N   87.6W                                   N/A     3/ 5
29.2N   88.2W                     220/ 17/ 23 1015.7R   3/ 4
PANAMA CITY BEAC NOT AVBL
TOWER C          NOT AVBL

$$
FLZ011-016>038-118-127-128-134-139-239-181700-
NORTH FLORIDA
  
CITY           SKY/WX    TMP DP  RH WIND       PRES   REMARKS
MARIANNA       FAIR      86  74  67 S7        29.98F                  
TALLAHASSEE    PTSUNNY   87  76  69 VRB5      30.00F HX  97           
PERRY          PTSUNNY   82  77  84 S5        30.02F                  
LIVE OAK       MOSUNNY   82  77  83 CALM      30.02F                  
CROSS CITY       N/A     81  77  88 SW5       30.02S                  
LAKE CITY      CLOUDY    81  72  74 W6        30.03F                  
GAINESVILLE    PTSUNNY   86  76  71 VRB6      30.04F HX  96           
PALATKA        FAIR      84  75  74 SW7       30.03S                  
MAYPORT NAS    PTSUNNY   84  73  69 SW7       30.02S                  
JACKSONVILLE   PTSUNNY   86  72  62 W8        30.01S                  
JAX NAS        PTSUNNY   85  71  63 VRB5      30.02S                  
JAX CECIL      PTSUNNY   90  73  58 SW7       30.02S HX  98           
FERNANDINA BEA FAIR      85  73  68 SW7       30.02S                  
ST AUGUSTINE   PTSUNNY   85  75  72 VRB3      30.02F                  
PALM COAST     PTSUNNY   84  73  70 SW7       30.02F                  

STATION/POSITION SKY/WX   TEMP    WIND        PRES    WAVE   SWELL
                          AIR SEA DIR/SP/G            HT/PER HT/PER
                          (F)     (DEG/KT/KT) (MB)    (FT/S) (FT/S)
SHELL POINT      NOT AVBL
KEATON BEACH               81     210/  5/  7 1016.7F
CEDAR KEY        NOT AVBL
FERNANDINA       NOT AVBL
30.7N   81.3W                 83                N/A     3/ 5
MAYPORT          NOT AVBL
31.4N   80.9W              80 83  270/  4/  6 1016.7R   3/ 6   3/ 6
ST AUGUSTINE               83 80  250/  5/  7 1016.8F

$$
FLZ040-043>046-052-053-057-058-063-144-181700-
INTERIOR CENTRAL FLORIDA
  
CITY           SKY/WX    TMP DP  RH WIND       PRES   REMARKS
OCALA          FAIR      78  76  93 SW3       30.04S                  
LEESBURG       FAIR      86  74  67 VRB5      30.03F                  
SANFORD        PTSUNNY   86  73  65 W9        30.03S                  
ORLANDO EXEC   FAIR      87  74  64 SW10      30.04S HX  95           
ORLANDO INTL   PTSUNNY   87  74  64 SW10G20   30.04S HX  95           
KISSIMMEE      PTSUNNY   86  75  69 SW9       30.05F HX  95           
WINTER HAVEN   FAIR      88  74  63 SW8       30.05F HX  96           
LAKELAND       TSTM      84  73  70 W24       30.06R VSB 1            
BARTOW         PTSUNNY   86  77  74 SW8       30.04F HX  97           
SEBRING        CLOUDY    86  76  73 S6        30.06F HX  95           
OKEECHOBEE     FAIR      82  73  74 S8        30.07F                  

$$
FLZ041-047-054-059-064-141-147-181700-
EAST CENTRAL FLORIDA
  
CITY           SKY/WX    TMP DP  RH WIND       PRES   REMARKS
ORMOND BEACH   MOSUNNY   86  75  70 SW9       30.03S HX  95           
DAYTONA BEACH  PTSUNNY   86  76  71 W9        30.02F HX  96           
DELAND         PTSUNNY   86  73  66 S9        30.02F                  
NEW SMYRNA BEA PTSUNNY   90  73  58 W8        30.04S HX  98           
JFK SPACE CTR  FAIR      87  67  52 SW8       30.03F                  
TITUSVILLE     MOSUNNY   90  75  62 S6        30.04F HX 100           
CAPE CANAVERAL FAIR      86 N/A N/A S13       30.03F                  
PATRICK AFB    FAIR      88  76  67 SW10      30.04F HX  99           
MELBOURNE      FAIR      88  75  65 SW13      30.04F HX  97           
VERO BEACH     FAIR      87  72  60 S13       30.07S                  
FT PIERCE      PTSUNNY   87  72  60 S8        30.06F                  
STUART         MOSUNNY   86  72  62 S9        30.08F                  

STATION/POSITION SKY/WX   TEMP    WIND        PRES    WAVE   SWELL
                          AIR SEA DIR/SP/G            HT/PER HT/PER
                          (F)     (DEG/KT/KT) (MB)    (FT/S) (FT/S)
28.5N   80.2W              79 80  180/ 14/ 16 1017.7F   3/ 4   2/ 8
28.9N   78.5W              78 82  140/ 14/ 17   N/A
TRIDENT PIER     NOT AVBL
28.4N   80.5W                 78                N/A     3/ 5
27.5N   80.2W                 81                N/A     2/ 4

$$
FLZ050-056-061-142-242-148-248-149-249-151-251-155-255-
160-260-181700-
WEST CENTRAL FLORIDA
  
CITY           SKY/WX    TMP DP  RH WIND       PRES   REMARKS
CRYSTAL RIVER  FAIR      79  73  83 CALM      30.03F                  
INVERNESS      CLOUDY    77  77 100 CALM      30.05R THUNDER          
BROOKSVILLE    FAIR      83  76  79 W9        30.05R                  
CLEARWATER AIR PTSUNNY   86  72  62 W10       30.04S                  
ST PETE CLEARW FAIR      87  75  67 SW12      30.04S HX  96           
TAMPA INTL     PTSUNNY   87  75  67 SW12      30.04S HX  96           
TAMPA EXEC     CLOUDY    82  77  83 SW6       30.04F                  
PLANT CITY     CLOUDY    84  75  74 MISG        N/A                   
MACDILL AFB    FAIR      88  77  70 S16       30.05R HX 100           
PETER O KNIGHT CLOUDY    88  79  74 SW16      30.05S HX 102           
ST PETERSBURG  PTSUNNY   86  74  67 SW13      30.03R                  
SARASOTA       FAIR      87  76  69 SW13      30.03S HX  97           
VENICE         FAIR      86  79  79 S16G22    30.05F HX  99           

STATION/POSITION SKY/WX   TEMP    WIND        PRES    WAVE   SWELL
                          AIR SEA DIR/SP/G            HT/PER HT/PER
                          (F)     (DEG/KT/KT) (MB)    (FT/S) (FT/S)
27.3N   84.2W                 83                N/A     2/ 5
CLEARWATER BEACH NOT AVBL
MIDDLE TAMPA BAY NOT AVBL
VENICE                     84 84  200/ 11/ 12 1017.7S

$$
FLZ066-069-070-075>078-162-262-165-265-181700-
SOUTHWEST FLORIDA AND KEYS
  
CITY           SKY/WX    TMP DP  RH WIND       PRES   REMARKS
PUNTA GORDA    FAIR      84  75  74 S13       30.07S                  
FT MYERS       LGT RAIN  77  73  87 S6        30.07S                  
SOUTHWEST INTL PTSUNNY   81  72  74 SW6       30.08S                  
NAPLES         CLOUDY    76  32  20 NE3       30.09R THUNDER          
IMMOKALEE      PTSUNNY   82  72  69 W13G23    30.08R                  
MARATHON       FAIR      89  77  67 SE10      30.08S HX 101           
KEY WEST NAS   PTSUNNY   89  76  65 SE14      30.08R HX 100           
KEY WEST INTL  FAIR      86  77  74 SE14      30.08S HX  97           

STATION/POSITION SKY/WX   TEMP    WIND        PRES    WAVE   SWELL
                          AIR SEA DIR/SP/G            HT/PER HT/PER
                          (F)     (DEG/KT/KT) (MB)    (FT/S) (FT/S)
NAPLES           NOT AVBL
DRY TORTUGAS               84     160/ 13/ 14 1018.4R
SAND KEY                   83                 1018.5R
SOMBRERO KEY               83                 1017.9F

$$
FLZ067-068-071>074-168-172>174-181700-
SOUTHEAST FLORIDA 
  
CITY           SKY/WX    TMP DP  RH WIND       PRES   REMARKS
W PALM BEACH   PTSUNNY   87  73  62 SW8       30.08S                  
BOCA RATON     MOSUNNY   90  73  58 SW6       30.08S HX  98           
FT LAUDER-EXEC FAIR      89  72  56 SW7       30.07S HX  96           
FT LAUDERDALE  PTSUNNY   87  72  60 SW9       30.07S                  
POMPANO BEACH  FAIR      87  72  60 MISG      30.08R                  
PEMBROKE PINES FAIR      89  69  51 W5        30.09S                  
OPA LOCKA      FAIR      88  72  58 S6        30.08F                  
MIAMI          PTSUNNY   89  73  59 SE8       30.08S HX  97           
WEST KENDALL   CLOUDY    87  74  64 SW6       30.07F HX  95           
HOMESTEAD      FAIR      89  71  56 SE8       30.07S                  

STATION/POSITION SKY/WX   TEMP    WIND        PRES    WAVE   SWELL
                          AIR SEA DIR/SP/G            HT/PER HT/PER
                          (F)     (DEG/KT/KT) (MB)    (FT/S) (FT/S)
SETTLEMENT POINT           83     180/  8/ 10 1018.6F

$$